Wind_Speed
15 15 16 16 17 17 17 18 19 20 21 22 22 23 23 24 25 26 27 28 28 29 29 30 31 31 31 30 31 31 32 32 32 33 34 36 37 37
13 14 15 16 17 17 18 18 19 20 21 22 22 23 23 25 26 26 27 27 28 29 29 29 30 31 31 31 31 31 32 32 33 34 34 35 36 37
12 13 14 15 16 17 18 19 19 19 19 20 21 22 23 23 25 25 26 27 28 29 29 30 30 30 31 32 32 32 32 33 32 33 34 35 36 36
13 13 13 15 16 17 17 18 18 18 19 20 20 21 22 23 24 25 25 26 27 28 28 28 29 30 31 32 32 32 32 33 33 33 34 35 35 35
12 13 14 15 15 16 17 17 18 19 19 20 20 21 22 23 24 24 24 25 26 27 26 27 27 28 29 29 30 31 32 32 33 33 34 35 35 36
13 13 14 15 15 16 16 17 17 18 19 20 21 22 22 23 24 24 24 25 25 26 26 27 28 28 28 28 29 30 31 31 33 33 34 34 35 36
13 14 15 15 15 16 16 16 17 18 20 20 21 21 22 23 23 23 24 24 25 26 26 27 27 27 27 28 28 28 29 30 31 32 33 34 35 36
14 15 15 15 15 15 16 18 19 20 21 21 21 22 23 23 23 23 23 24 24 25 26 26 26 26 26 27 27 27 28 29 29 31 32 33 34 35
15 15 15 15 16 16 17 18 19 20 21 21 21 22 23 23 23 23 23 24 24 24 25 25 25 26 26 26 25 26 27 28 28 29 30 31 31 33
15 16 16 16 16 17 18 18 19 19 19 19 20 21 22 22 22 23 23 23 24 23 23 24 25 26 26 25 25 25 25 26 26 27 28 29 30 31
15 15 15 15 16 17 18 18 18 19 18 18 20 20 21 21 21 22 22 22 23 23 24 24 24 24 25 24 24 24 24 24 25 25 26 26 27 28
14 14 15 15 15 17 18 18 18 18 18 19 20 20 21 21 21 21 21 22 23 22 22 24 24 24 24 24 24 24 25 25 25 24 25 26 27 28
13 14 14 15 16 17 18 18 19 19 18 19 19 20 20 21 21 21 21 22 22 22 22 23 24 24 24 24 24 25 25 24 24 23 24 25 26 27
14 14 14 15 16 16 17 18 18 18 18 18 19 19 20 21 20 20 21 21 22 22 22 22 23 23 23 23 23 23 23 23 23 23 23 24 25 25
14 14 14 15 15 16 16 17 18 18 18 17 17 18 19 20 20 20 21 21 21 21 21 21 21 21 21 21 22 22 22 22 22 22 22 23 23 23
13 13 14 15 16 16 16 17 17 17 17 17 17 18 20 21 21 21 21 21 21 21 21 21 21 21 21 21 21 21 21 21 21 21 21 21 21 22
13 13 14 15 15 16 16 16 16 17 17 18 18 19 19 20 21 20 21 21 21 21 21 20 20 20 20 21 20 21 21 20 19 19 19 19 20 21
13 14 14 15 15 15 16 16 16 16 17 18 19 19 19 20 20 21 21 21 21 21 20 20 20 20 20 21 20 19 19 18 18 18 19 19 19 19
13 14 15 15 15 15 15 16 16 17 18 18 19 19 19 20 21 21 21 21 21 21 20 20 20 20 20 20 19 18 18 17 17 17 17 17 17 17
15 14 14 15 15 14 15 16 16 17 18 18 19 19 19 20 21 21 21 21 21 21 20 20 20 19 19 19 18 18 17 17 17 16 17 17 17 18
16 15 14 14 14 13 14 16 17 16 17 19 20 20 20 21 21 21 21 20 20 20 20 20 19 19 19 18 18 17 17 17 17 17 17 18 18 19
16 16 15 15 15 14 15 16 17 17 17 19 20 20 20 21 21 21 20 20 19 19 19 20 20 19 18 17 17 17 17 18 18 19 19 19 19 19
16 17 16 16 17 17 17 17 17 17 18 19 20 21 21 21 21 21 21 20 20 19 19 19 19 19 18 17 18 18 18 18 18 19 19 20 20 20
Wind_Direction
276 274 272 271 271 274 278 279 280 283 282 280 280 280 279 279 280 281 282 283 283 281 278 275 274 273 272 271 269 268 267 265 263 260 259 258 256 255
278 275 273 274 275 274 278 282 283 284 284 282 283 284 284 283 284 285 286 286 285 283 280 277 275 274 273 271 271 270 268 267 266 263 261 260 258 256
277 276 277 279 279 278 281 284 285 286 288 286 286 286 286 287 288 288 288 287 286 285 283 280 276 274 273 272 272 272 270 269 268 265 262 261 260 258
280 281 283 284 284 281 283 285 286 288 291 290 289 290 289 291 292 290 289 288 287 287 285 281 279 277 276 274 272 272 271 269 268 265 263 262 260 259
285 286 285 286 286 286 287 286 288 289 291 292 291 292 293 293 295 294 293 292 291 289 286 282 283 282 279 276 275 274 272 270 267 266 265 263 261 259
286 288 287 287 288 290 288 287 289 290 292 293 293 293 295 296 297 297 296 295 294 292 288 286 286 285 283 280 278 276 273 270 269 267 266 264 263 261
289 291 293 292 291 293 292 291 291 293 295 294 295 295 296 296 296 297 298 298 296 294 292 290 289 287 285 283 280 277 275 273 270 269 267 266 263 262
291 293 294 295 295 295 296 295 294 295 296 296 297 298 297 297 298 298 300 299 297 296 295 294 291 288 288 286 283 280 278 276 274 271 269 268 265 262
292 293 294 296 296 297 299 299 299 299 298 298 298 299 299 299 300 301 301 301 300 297 296 296 294 292 290 289 286 284 281 278 275 273 272 269 266 263
294 293 292 294 297 298 301 303 302 304 304 304 303 302 302 303 304 303 303 302 301 300 298 297 296 293 290 290 288 287 284 281 278 276 274 272 267 265
296 295 294 297 298 299 302 305 306 306 305 307 307 305 304 306 306 306 305 305 303 302 300 298 297 294 292 291 289 287 286 284 281 277 275 272 269 265
300 299 299 300 301 304 306 308 310 311 310 308 308 308 306 309 309 309 308 308 306 304 302 299 297 296 294 294 293 291 289 288 286 282 278 276 274 272
307 305 303 303 303 306 308 309 311 313 312 311 310 311 310 312 311 311 311 311 311 309 306 302 300 299 298 298 297 296 294 293 291 287 283 279 275 274
307 306 305 304 304 305 308 309 310 311 312 313 313 314 315 315 314 314 313 313 314 312 311 309 307 305 302 300 299 298 296 295 294 291 287 284 282 279
311 311 309 307 307 309 312 315 316 316 317 318 318 318 318 320 319 320 317 314 314 315 315 315 313 311 309 307 305 304 300 296 294 293 291 287 285 281
315 314 312 311 311 313 315 317 318 320 322 323 322 320 320 322 321 321 320 319 318 320 320 319 317 315 313 311 309 307 305 303 300 297 294 290 285 282
313 313 313 313 313 314 315 317 320 323 323 323 323 323 323 324 325 323 323 322 321 322 321 321 320 318 316 314 312 311 311 309 305 301 298 295 292 288
314 316 315 313 311 312 314 317 319 321 322 323 325 326 326 325 325 325 325 324 324 323 322 321 320 319 319 320 317 316 314 312 309 307 306 302 299 295
315 318 319 316 313 312 313 314 316 318 321 324 326 327 328 328 327 325 325 325 324 323 323 321 320 319 320 323 324 321 319 317 316 314 312 309 306 301
316 317 320 320 318 315 314 314 315 317 320 323 325 326 327 328 328 326 325 325 324 323 322 322 321 320 320 322 323 323 323 323 322 321 318 314 311 306
314 315 315 318 318 316 317 318 318 317 320 323 326 327 327 327 328 329 328 327 326 325 323 324 323 322 323 323 323 323 323 322 324 324 322 319 315 311
312 313 312 313 316 316 317 322 322 321 322 325 327 329 328 327 327 328 329 328 328 328 328 327 326 325 324 322 322 322 321 321 322 323 321 319 317 314
315 313 311 311 312 313 315 319 320 320 322 324 325 328 329 329 329 329 330 330 330 331 331 330 330 329 326 323 322 322 321 323 323 322 322 321 319 316
Height
5784 5783 5783 5782 5782 5782 5781 5781 5780 5779 5777 5776 5775 5773 5772 5771 5770 5768 5766 5765 5763 5761 5760 5759 5758 5756 5755 5754 5753 5753 5752 5751 5751 5751 5752 5754 5755 5757
5779 5779 5778 5778 5777 5777 5776 5775 5774 5773 5771 5770 5768 5767 5765 5764 5762 5760 5758 5756 5754 5752 5751 5749 5748 5747 5746 5745 5744 5743 5742 5741 5741 5741 5742 5743 5744 5746
5775 5774 5774 5773 5772 5772 5771 5770 5768 5767 5765 5764 5762 5760 5758 5756 5754 5752 5749 5747 5745 5743 5741 5740 5738 5737 5736 5735 5734 5733 5732 5731 5731 5731 5731 5733 5734 5735
5771 5770 5770 5769 5768 5767 5766 5764 5763 5761 5760 5758 5756 5753 5751 5749 5746 5744 5742 5739 5737 5735 5733 5730 5728 5727 5726 5724 5724 5723 5722 5721 5721 5721 5721 5722 5723 5724
5767 5766 5765 5764 5763 5762 5760 5759 5757 5755 5753 5751 5749 5747 5745 5743 5740 5737 5734 5732 5729 5726 5724 5722 5719 5718 5716 5715 5714 5713 5712 5712 5711 5711 5710 5711 5712 5713
5763 5762 5761 5760 5758 5757 5755 5753 5752 5750 5748 5746 5743 5741 5739 5736 5733 5730 5727 5724 5722 5718 5716 5713 5711 5709 5707 5705 5704 5703 5702 5701 5700 5700 5700 5700 5701 5702
5759 5758 5756 5755 5753 5752 5750 5748 5746 5744 5742 5740 5737 5735 5732 5729 5727 5724 5720 5717 5714 5711 5708 5705 5702 5700 5698 5696 5694 5693 5692 5691 5690 5689 5689 5689 5690 5691
5755 5753 5752 5751 5749 5747 5745 5743 5741 5738 5736 5733 5731 5728 5726 5723 5720 5717 5714 5711 5708 5705 5701 5697 5694 5691 5689 5687 5685 5684 5682 5681 5680 5680 5679 5679 5679 5680
5750 5749 5747 5746 5744 5742 5740 5738 5735 5732 5730 5727 5724 5722 5719 5716 5713 5710 5706 5703 5700 5697 5693 5690 5687 5684 5681 5679 5677 5675 5673 5672 5671 5670 5670 5669 5669 5669
5746 5744 5743 5741 5739 5737 5735 5733 5730 5727 5724 5721 5719 5716 5713 5710 5706 5703 5699 5696 5693 5690 5686 5683 5680 5677 5674 5671 5669 5667 5665 5663 5662 5661 5660 5659 5659 5659
5741 5740 5738 5737 5735 5733 5730 5728 5725 5722 5718 5716 5713 5710 5707 5703 5700 5696 5693 5689 5686 5683 5680 5676 5673 5670 5667 5664 5662 5659 5657 5656 5654 5652 5651 5650 5650 5650
5738 5736 5734 5732 5731 5728 5726 5723 5720 5717 5713 5711 5708 5704 5701 5697 5694 5691 5687 5683 5680 5677 5673 5670 5667 5664 5661 5658 5655 5652 5649 5648 5646 5644 5643 5642 5641 5641
5734 5732 5730 5728 5726 5724 5721 5718 5715 5712 5709 5705 5702 5699 5695 5692 5689 5685 5682 5678 5674 5671 5667 5664 5660 5657 5654 5651 5648 5645 5642 5640 5638 5636 5635 5634 5633 5633
5730 5728 5726 5724 5722 5719 5717 5714 5710 5707 5704 5700 5697 5694 5691 5687 5684 5680 5677 5673 5669 5665 5662 5658 5654 5651 5648 5645 5642 5639 5636 5633 5631 5629 5627 5626 5625 5624
5727 5724 5722 5720 5718 5715 5712 5709 5706 5702 5699 5696 5693 5690 5687 5683 5679 5676 5672 5668 5664 5660 5656 5653 5649 5645 5642 5639 5636 5633 5630 5627 5624 5622 5620 5619 5618 5616
5723 5721 5719 5716 5714 5711 5708 5705 5702 5699 5696 5692 5689 5686 5683 5679 5675 5671 5667 5663 5660 5656 5652 5648 5644 5641 5637 5634 5630 5627 5624 5621 5619 5616 5614 5612 5610 5609
5720 5717 5715 5713 5710 5707 5704 5701 5698 5695 5692 5689 5686 5682 5678 5675 5671 5667 5663 5659 5655 5651 5648 5644 5640 5636 5632 5629 5626 5622 5619 5616 5613 5610 5608 5606 5604 5602
5716 5714 5711 5708 5706 5703 5700 5697 5695 5692 5689 5685 5682 5678 5675 5671 5667 5663 5659 5655 5651 5647 5643 5640 5636 5632 5628 5625 5621 5617 5614 5611 5608 5606 5603 5600 5598 5596
5713 5710 5707 5704 5702 5699 5696 5694 5691 5688 5685 5681 5678 5674 5671 5667 5663 5659 5655 5651 5647 5643 5639 5635 5631 5628 5624 5621 5617 5613 5610 5607 5604 5601 5599 5596 5593 5591
5709 5706 5703 5700 5698 5695 5693 5690 5687 5684 5681 5678 5674 5670 5667 5663 5659 5655 5650 5646 5642 5639 5635 5631 5628 5624 5620 5617 5614 5610 5607 5603 5600 5598 5595 5592 5589 5586
5705 5702 5699 5696 5693 5691 5688 5686 5683 5680 5677 5674 5670 5666 5663 5659 5655 5650 5646 5642 5639 5635 5631 5628 5624 5620 5617 5613 5610 5607 5604 5600 5597 5594 5591 5588 5584 5581
5701 5698 5695 5692 5690 5687 5684 5681 5678 5675 5672 5669 5666 5662 5658 5655 5650 5647 5643 5639 5635 5631 5628 5624 5621 5617 5614 5610 5607 5604 5601 5597 5594 5590 5587 5583 5579 5576
5697 5694 5691 5688 5686 5683 5680 5677 5674 5671 5668 5665 5662 5658 5654 5650 5646 5643 5639 5635 5631 5628 5624 5621 5617 5614 5610 5607 5604 5600 5597 5594 5590 5587 5583 5579 5575 5571